Saratoga-Weather Station Historical Data
 
Daily Summary for September 20, 2018 Units:  English    Metric   Both
Daily Weekly Monthly Yearly Custom
  Current: High: Low: Average:
Temperature: 69.1 °F 76.2 °F 53.4 °F 62.9 °F
Dew Point: 64.74 °F 69.12 °F 52.11 °F 59.3 °F
Humidity: 86% 97% 74% 88%
Wind Speed: 0mph 5mph 0mph 0.1mph
Wind Gust: 5mph 7mph - -
WindCalm - - SE
Pressure: 30.16 in 30.22 in 30.08 in -
Precipitation: 0 in      
Historical Graphs
 
 
Tabular Data for September 20, 2018
Time Temperature Dew Point Pressure Wind Wind Speed Wind Gust Humidity Rainfall Rate (Hourly) solar
00:00 62.8 °F 59.2 °F 30.08 in Calm   1 mph 88% 0 in VWS V15.00 W/m2
00:03 62.6 °F 59 °F 30.08 in Calm     88% 0 in VWS V15.00 W/m2
00:07 62.4 °F 58.8 °F 30.08 in Calm     88% 0 in VWS V15.00 W/m2
00:13 62.2 °F 58.61 °F 30.09 in Calm     88% 0 in VWS V15.00 W/m2
00:17 62 °F 58.41 °F 30.09 in Calm     88% 0 in VWS V15.00 W/m2
00:23 61.7 °F 58.43 °F 30.09 in Calm     89% 0 in VWS V15.00 W/m2
00:27 61.5 °F 58.23 °F 30.09 in Calm     89% 0 in VWS V15.00 W/m2
00:30 61.4 °F 58.45 °F 30.09 in Calm     90% 0 in VWS V15.00 W/m2
00:33 61.2 °F 58.25 °F 30.09 in Calm     90% 0 in VWS V15.00 W/m2
00:37 61.1 °F 58.15 °F 30.09 in Calm     90% 0 in VWS V15.00 W/m2
00:43 60.8 °F 58.16 °F 30.09 in Calm     91% 0 in VWS V15.00 W/m2
00:47 60.6 °F 57.96 °F 30.09 in Calm     91% 0 in VWS V15.00 W/m2
00:53 60.4 °F 57.46 °F 30.09 in Calm     90% 0 in VWS V15.00 W/m2
00:57 60.2 °F 57.26 °F 30.09 in Calm     90% 0 in VWS V15.00 W/m2
01:00 60.1 °F 57.47 °F 30.09 in Calm     91% 0 in VWS V15.00 W/m2
01:03 59.9 °F 56.96 °F 30.09 in Calm     90% 0 in VWS V15.00 W/m2
01:07 59.7 °F 57.07 °F 30.09 in Calm     91% 0 in VWS V15.00 W/m2
01:13 59.5 °F 57.18 °F 30.09 in Calm     92% 0 in VWS V15.00 W/m2
01:17 59.4 °F 57.08 °F 30.10 in Calm     92% 0 in VWS V15.00 W/m2
01:21 59.2 °F 56.88 °F 30.10 in Calm     92% 0 in VWS V15.00 W/m2
01:27 59 °F 56.68 °F 30.09 in Calm     92% 0 in VWS V15.00 W/m2
01:30 58.9 °F 56.58 °F 30.09 in Calm     92% 0 in VWS V15.00 W/m2
01:31 58.9 °F 56.58 °F 30.09 in Calm     92% 0 in VWS V15.00 W/m2
01:37 58.7 °F 56.39 °F 30.10 in Calm     92% 0 in VWS V15.00 W/m2
01:41 58.5 °F 56.19 °F 30.10 in Calm     92% 0 in VWS V15.00 W/m2
01:47 58.3 °F 55.99 °F 30.10 in Calm     92% 0 in VWS V15.00 W/m2
01:51 58.2 °F 55.89 °F 30.10 in Calm     92% 0 in VWS V15.00 W/m2
01:57 58 °F 55.99 °F 30.10 in Calm     93% 0 in VWS V15.00 W/m2
02:00 57.9 °F 55.89 °F 30.10 in Calm     93% 0 in VWS V15.00 W/m2
02:02 57.8 °F 55.79 °F 30.10 in Calm     93% 0 in VWS V15.00 W/m2
02:08 57.7 °F 55.69 °F 30.10 in Calm     93% 0 in VWS V15.00 W/m2
02:12 57.6 °F 55.6 °F 30.10 in Calm     93% 0 in VWS V15.00 W/m2
02:18 57.5 °F 55.79 °F 30.10 in Calm     94% 0 in VWS V15.00 W/m2
02:22 57.4 °F 55.69 °F 30.10 in Calm     94% 0 in VWS V15.00 W/m2
02:28 57.2 °F 55.49 °F 30.09 in Calm     94% 0 in VWS V15.00 W/m2
02:30 57.2 °F 55.2 °F 30.10 in Calm     93% 0 in VWS V15.00 W/m2
02:32 57.1 °F 55.1 °F 30.10 in Calm     93% 0 in VWS V15.00 W/m2
02:38 57 °F 55.29 °F 30.10 in Calm     94% 0 in VWS V15.00 W/m2
02:42 56.9 °F 55.2 °F 30.10 in Calm     94% 0 in VWS V15.00 W/m2
02:48 56.7 °F 55 °F 30.09 in Calm     94% 0 in VWS V15.00 W/m2
02:52 56.6 °F 54.9 °F 30.10 in Calm     94% 0 in VWS V15.00 W/m2
02:58 56.5 °F 54.8 °F 30.10 in Calm     94% 0 in VWS V15.00 W/m2
03:00 56.5 °F 54.8 °F 30.10 in Calm     94% 0 in VWS V15.00 W/m2
03:02 56.4 °F 54.7 °F 30.10 in Calm     94% 0 in VWS V15.00 W/m2
03:08 56.3 °F 54.6 °F 30.10 in Calm     94% 0 in VWS V15.00 W/m2
03:12 56.3 °F 54.6 °F 30.10 in Calm     94% 0 in VWS V15.00 W/m2
03:18 56.2 °F 54.5 °F 30.10 in Calm     94% 0 in VWS V15.00 W/m2
03:22 56.1 °F 54.4 °F 30.10 in Calm     94% 0 in VWS V15.00 W/m2
03:28 56 °F 54.3 °F 30.10 in Calm     94% 0 in VWS V15.00 W/m2
03:30 55.9 °F 54.2 °F 30.10 in Calm     94% 0 in VWS V15.00 W/m2
03:32 55.9 °F 54.2 °F 30.10 in Calm     94% 0 in VWS V15.00 W/m2
03:38 55.7 °F 54 °F 30.09 in Calm     94% 0 in VWS V15.00 W/m2
03:42 55.6 °F 53.9 °F 30.09 in Calm     94% 0 in VWS V15.00 W/m2
03:48 55.5 °F 53.81 °F 30.09 in Calm     94% 0 in VWS V15.00 W/m2
03:52 55.4 °F 53.71 °F 30.09 in Calm     94% 0 in VWS V15.00 W/m2
03:58 55.3 °F 53.61 °F 30.09 in Calm     94% 0 in VWS V15.00 W/m2
04:00 55.2 °F 53.51 °F 30.09 in Calm     94% 0 in VWS V15.00 W/m2
04:02 55.2 °F 53.51 °F 30.09 in Calm     94% 0 in VWS V15.00 W/m2
04:08 55.1 °F 53.7 °F 30.09 in Calm     95% 0 in VWS V15.00 W/m2
04:12 55 °F 53.6 °F 30.09 in Calm     95% 0 in VWS V15.00 W/m2
04:18 54.9 °F 53.5 °F 30.09 in Calm     95% 0 in VWS V15.00 W/m2
04:22 54.9 °F 53.5 °F 30.09 in Calm     95% 0 in VWS V15.00 W/m2
04:28 54.8 °F 53.4 °F 30.09 in Calm     95% 0 in VWS V15.00 W/m2
04:30 54.8 °F 53.4 °F 30.09 in Calm     95% 0 in VWS V15.00 W/m2
04:32 54.8 °F 53.4 °F 30.09 in Calm     95% 0 in VWS V15.00 W/m2
04:38 54.7 °F 53.3 °F 30.10 in Calm     95% 0 in VWS V15.00 W/m2
04:42 54.6 °F 53.2 °F 30.10 in Calm     95% 0 in VWS V15.00 W/m2
04:48 54.6 °F 53.2 °F 30.10 in Calm     95% 0 in VWS V15.00 W/m2
04:52 54.6 °F 53.2 °F 30.11 in Calm     95% 0 in VWS V15.00 W/m2
04:58 54.5 °F 53.1 °F 30.11 in Calm     95% 0 in VWS V15.00 W/m2
05:00 54.5 °F 53.1 °F 30.11 in Calm     95% 0 in VWS V15.00 W/m2
05:02 54.5 °F 53.1 °F 30.11 in Calm     95% 0 in VWS V15.00 W/m2
05:08 54.5 °F 53.1 °F 30.11 in Calm     95% 0 in VWS V15.00 W/m2
05:12 54.5 °F 53.1 °F 30.12 in Calm     95% 0 in VWS V15.00 W/m2
05:18 54.4 °F 53 °F 30.12 in Calm     95% 0 in VWS V15.00 W/m2
05:22 54.4 °F 53 °F 30.12 in Calm     95% 0 in VWS V15.00 W/m2
05:28 54.3 °F 52.9 °F 30.12 in Calm     95% 0 in VWS V15.00 W/m2
05:30 54.2 °F 52.8 °F 30.12 in Calm     95% 0 in VWS V15.00 W/m2
05:32 54.2 °F 52.8 °F 30.12 in Calm     95% 0 in VWS V15.00 W/m2
05:38 54.1 °F 52.7 °F 30.12 in Calm     95% 0 in VWS V15.00 W/m2
05:42 54.1 °F 52.7 °F 30.12 in Calm     95% 0 in VWS V15.00 W/m2
05:48 54 °F 52.6 °F 30.12 in Calm     95% 0 in VWS V15.00 W/m2
05:52 53.9 °F 52.5 °F 30.13 in Calm     95% 0 in VWS V15.00 W/m2
05:58 53.9 °F 52.5 °F 30.13 in Calm     95% 0 in VWS V15.00 W/m2
06:00 53.8 °F 52.4 °F 30.13 in Calm     95% 0 in VWS V15.00 W/m2
06:02 53.8 °F 52.4 °F 30.13 in Calm     95% 0 in VWS V15.00 W/m2
06:08 53.7 °F 52.31 °F 30.13 in Calm     95% 0 in VWS V15.00 W/m2
06:12 53.7 °F 52.31 °F 30.13 in Calm     95% 0 in VWS V15.00 W/m2
06:18 53.6 °F 52.49 °F 30.13 in Calm     96% 0 in VWS V15.00 W/m2
06:22 53.6 °F 52.21 °F 30.13 in Calm     95% 0 in VWS V15.00 W/m2
06:28 53.5 °F 52.11 °F 30.14 in Calm     95% 0 in VWS V15.00 W/m2
06:30 53.5 °F 52.11 °F 30.14 in Calm     95% 0 in VWS V15.00 W/m2
06:32 53.4 °F 52.29 °F 30.15 in Calm     96% 0 in VWS V15.00 W/m2
06:38 53.4 °F 52.29 °F 30.14 in Calm     96% 0 in VWS V15.00 W/m2
06:42 53.5 °F 52.39 °F 30.14 in Calm     96% 0 in VWS V15.00 W/m2
06:48 53.5 °F 52.39 °F 30.15 in Calm     96% 0 in VWS V15.00 W/m2
06:52 53.5 °F 52.39 °F 30.15 in Calm     96% 0 in VWS V15.00 W/m2
06:58 53.6 °F 52.49 °F 30.15 in Calm     96% 0 in VWS V15.00 W/m2
07:00 53.6 °F 52.49 °F 30.16 in Calm     96% 0 in VWS V15.00 W/m2
07:02 53.7 °F 52.59 °F 30.16 in Calm     96% 0 in VWS V15.00 W/m2
07:08 53.7 °F 52.59 °F 30.16 in Calm     96% 0 in VWS V15.00 W/m2
07:12 53.8 °F 52.69 °F 30.16 in Calm     96% 0 in VWS V15.00 W/m2
07:18 53.9 °F 52.79 °F 30.17 in Calm     96% 0 in VWS V15.00 W/m2
07:22 54.1 °F 52.99 °F 30.17 in Calm     96% 0 in VWS V15.00 W/m2
07:26 54.4 °F 53.29 °F 30.17 in Calm     96% 0 in VWS V15.00 W/m2
07:30 54.6 °F 53.49 °F 30.17 in Calm     96% 0 in VWS V15.00 W/m2
07:32 54.8 °F 53.68 °F 30.18 in Calm     96% 0 in VWS V15.00 W/m2
07:36 55.1 °F 54.27 °F 30.18 in Calm     97% 0 in VWS V15.00 W/m2
07:42 55.8 °F 54.96 °F 30.18 in Calm     97% 0 in VWS V15.00 W/m2
07:46 56.2 °F 55.36 °F 30.18 in Calm     97% 0 in VWS V15.00 W/m2
07:52 56.7 °F 55.86 °F 30.19 in Calm     97% 0 in VWS V15.00 W/m2
07:57 57 °F 56.16 °F 30.19 in Calm     97% 0 in VWS V15.00 W/m2
08:00 57.2 °F 56.36 °F 30.19 in Calm     97% 0 in VWS V15.00 W/m2
08:03 57.4 °F 56.56 °F 30.19 in Calm     97% 0 in VWS V15.00 W/m2
08:07 57.6 °F 56.76 °F 30.19 in Calm     97% 0 in VWS V15.00 W/m2
08:13 57.9 °F 57.06 °F 30.19 in Calm     97% 0 in VWS V15.00 W/m2
08:17 58 °F 57.16 °F 30.19 in Calm     97% 0 in VWS V15.00 W/m2
08:23 58.2 °F 57.36 °F 30.19 in Calm     97% 0 in VWS V15.00 W/m2
08:27 58.3 °F 57.46 °F 30.19 in Calm     97% 0 in VWS V15.00 W/m2
08:30 58.4 °F 57.56 °F 30.19 in Calm     97% 0 in VWS V15.00 W/m2
08:33 58.6 °F 57.75 °F 30.20 in Calm     97% 0 in VWS V15.00 W/m2
08:37 58.6 °F 57.75 °F 30.20 in Calm     97% 0 in VWS V15.00 W/m2
08:43 58.8 °F 57.95 °F 30.20 in Calm     97% 0 in VWS V15.00 W/m2
08:47 59 °F 58.15 °F 30.20 in Calm     97% 0 in VWS V15.00 W/m2
08:53 59.1 °F 58.25 °F 30.20 in Calm     97% 0 in VWS V15.00 W/m2
08:57 59.3 °F 58.45 °F 30.20 in Calm     97% 0 in VWS V15.00 W/m2
09:00 59.3 °F 58.45 °F 30.20 in Calm     97% 0 in VWS V15.00 W/m2
09:03 59.4 °F 58.55 °F 30.20 in Calm     97% 0 in VWS V15.00 W/m2
09:07 59.5 °F 58.36 °F 30.20 in Calm     96% 0 in VWS V15.00 W/m2
09:13 59.6 °F 58.46 °F 30.20 in Calm     96% 0 in VWS V15.00 W/m2
09:17 59.6 °F 58.46 °F 30.20 in Calm     96% 0 in VWS V15.00 W/m2
09:23 59.7 °F 58.27 °F 30.20 in Calm     95% 0 in VWS V15.00 W/m2
09:27 59.8 °F 58.37 °F 30.20 in Calm     95% 0 in VWS V15.00 W/m2
09:30 59.9 °F 58.47 °F 30.20 in Calm     95% 0 in VWS V15.00 W/m2
09:33 60 °F 58.27 °F 30.20 in Calm   1 mph 94% 0 in VWS V15.00 W/m2
09:37 60.2 °F 58.47 °F 30.20 in Calm   1 mph 94% 0 in VWS V15.00 W/m2
09:43 60.5 °F 58.47 °F 30.20 in Calm   1 mph 93% 0 in VWS V15.00 W/m2
09:47 60.7 °F 58.67 °F 30.20 in Calm   1 mph 93% 0 in VWS V15.00 W/m2
09:53 61.1 °F 58.76 °F 30.21 in Calm   2 mph 92% 0 in VWS V15.00 W/m2
09:57 61.3 °F 58.96 °F 30.21 in Calm   2 mph 92% 0 in VWS V15.00 W/m2
10:00 61.4 °F 59.06 °F 30.22 in Calm   2 mph 92% 0 in VWS V15.00 W/m2
10:03 61.7 °F 59.05 °F 30.22 in Calm   2 mph 91% 0 in VWS V15.00 W/m2
10:07 62 °F 59.65 °F 30.22 in Calm   2 mph 92% 0 in VWS V15.00 W/m2
10:13 62.3 °F 59.33 °F 30.21 in Calm   2 mph 90% 0 in VWS V15.00 W/m2
10:17 62.7 °F 59.73 °F 30.22 in Calm   2 mph 90% 0 in VWS V15.00 W/m2
10:23 62.9 °F 59.61 °F 30.22 in Calm   2 mph 89% 0 in VWS V15.00 W/m2
10:27 63.1 °F 59.49 °F 30.22 in Calm   2 mph 88% 0 in VWS V15.00 W/m2
10:30 63.1 °F 59.49 °F 30.22 in Calm   2 mph 88% 0 in VWS V15.00 W/m2
10:33 63.4 °F 60.73 °F 30.22 in Calm     91% 0 in VWS V15.00 W/m2
10:37 63.7 °F 61.03 °F 30.22 in Calm     91% 0 in VWS V15.00 W/m2
10:43 64.2 °F 60.9 °F 30.22 in Calm     89% 0 in VWS V15.00 W/m2
10:47 64.5 °F 60.87 °F 30.22 in Calm   1 mph 88% 0 in VWS V15.00 W/m2
10:53 64.7 °F 60.75 °F 30.22 in Calm   1 mph 87% 0 in VWS V15.00 W/m2
10:57 64.8 °F 60.52 °F 30.22 in Calm   1 mph 86% 0 in VWS V15.00 W/m2
11:00 64.8 °F 60.52 °F 30.22 in Calm   1 mph 86% 0 in VWS V15.00 W/m2
11:03 64.9 °F 60.62 °F 30.22 in Calm   1 mph 86% 0 in VWS V15.00 W/m2
11:07 65 °F 60.39 °F 30.22 in Calm   1 mph 85% 0 in VWS V15.00 W/m2
11:13 65 °F 60.39 °F 30.22 in Calm   1 mph 85% 0 in VWS V15.00 W/m2
11:17 65.1 °F 60.15 °F 30.22 in Calm   1 mph 84% 0 in VWS V15.00 W/m2
11:23 65 °F 60.39 °F 30.22 in Calm   1 mph 85% 0 in VWS V15.00 W/m2
11:27 65.1 °F 60.48 °F 30.22 in Calm   1 mph 85% 0 in VWS V15.00 W/m2
11:30 65.1 °F 60.49 °F 30.21 in Calm   1 mph 85% 0 in VWS V15.00 W/m2
11:31 65.2 °F 60.25 °F 30.21 in Calm     84% 0 in VWS V15.00 W/m2
11:37 65.5 °F 61.21 °F 30.21 in Calm   1 mph 86% 0 in VWS V15.00 W/m2
11:42 65.6 °F 60.64 °F 30.20 in Calm   1 mph 84% 0 in VWS V15.00 W/m2
11:48 65.9 °F 60.94 °F 30.20 in Calm   1 mph 84% 0 in VWS V15.00 W/m2
11:52 66.1 °F 60.79 °F 30.20 in Calm   2 mph 83% 0 in VWS V15.00 W/m2
11:58 66.4 °F 61.42 °F 30.20 in Calm   2 mph 84% 0 in VWS V15.00 W/m2
12:00 66.6 °F 61.28 °F 30.20 in Calm   2 mph 83% 0 in VWS V15.00 W/m2
12:02 66.7 °F 61.38 °F 30.20 in Calm     83% 0 in VWS V15.00 W/m2
12:07 67 °F 61.33 °F 30.20 in Calm   1 mph 82% 0 in VWS V15.00 W/m2
12:13 67.4 °F 62.4 °F 30.20 in Calm   2 mph 84% 0 in VWS V15.00 W/m2
12:17 67.5 °F 61.47 °F 30.21 in Calm   2 mph 81% 0 in VWS V15.00 W/m2
12:23 67.6 °F 62.26 °F 30.20 in Calm   2 mph 83% 0 in VWS V15.00 W/m2
12:27 67.6 °F 62.26 °F 30.20 in NW 1 mph 2 mph 83% 0 in VWS V15.00 W/m2
12:30 67.7 °F 61.67 °F 30.20 in Calm   2 mph 81% 0 in VWS V15.00 W/m2
12:33 67.7 °F 62.01 °F 30.20 in Calm   1 mph 82% 0 in VWS V15.00 W/m2
12:37 67.8 °F 62.11 °F 30.20 in Calm   1 mph 82% 0 in VWS V15.00 W/m2
12:43 68 °F 62.65 °F 30.20 in Calm   2 mph 83% 0 in VWS V15.00 W/m2
12:47 68.2 °F 62.5 °F 30.20 in Calm   2 mph 82% 0 in VWS V15.00 W/m2
12:53 68.4 °F 62.35 °F 30.19 in Calm   2 mph 81% 0 in VWS V15.00 W/m2
12:57 68.8 °F 62.74 °F 30.19 in Calm   2 mph 81% 0 in VWS V15.00 W/m2
13:00 69 °F 62.93 °F 30.19 in Calm   2 mph 81% 0 in VWS V15.00 W/m2
13:03 69.2 °F 63.13 °F 30.18 in Calm   2 mph 81% 0 in VWS V15.00 W/m2
13:07 69.4 °F 62.97 °F 30.18 in Calm   2 mph 80% 0 in VWS V15.00 W/m2
13:13 69.7 °F 63.62 °F 30.18 in Calm   2 mph 81% 0 in VWS V15.00 W/m2
13:17 70 °F 63.55 °F 30.18 in Calm   2 mph 80% 0 in VWS V15.00 W/m2
13:23 70.4 °F 64.65 °F 30.18 in Calm   2 mph 82% 0 in VWS V15.00 W/m2
13:27 70.7 °F 64.23 °F 30.18 in Calm   2 mph 80% 0 in VWS V15.00 W/m2
13:30 70.9 °F 64.79 °F 30.18 in Calm   2 mph 81% 0 in VWS V15.00 W/m2
13:33 71.3 °F 64.82 °F 30.18 in Calm   1 mph 80% 0 in VWS V15.00 W/m2
13:37 71.6 °F 64.38 °F 30.18 in Calm   1 mph 78% 0 in VWS V15.00 W/m2
13:43 72.1 °F 64.5 °F 30.17 in NNW 1 mph 2 mph 77% 0 in VWS V15.00 W/m2
13:47 72.3 °F 64.69 °F 30.17 in Calm   2 mph 77% 0 in VWS V15.00 W/m2
13:51 72.7 °F 65.08 °F 30.17 in Calm   2 mph 77% 0 in VWS V15.00 W/m2
13:57 73.3 °F 65.66 °F 30.17 in WSW 1 mph 2 mph 77% 0 in VWS V15.00 W/m2
14:00 73.5 °F 65.86 °F 30.16 in Calm   2 mph 77% 0 in VWS V15.00 W/m2
14:01 73.6 °F 65.95 °F 30.16 in Calm     77% 0 in VWS V15.00 W/m2
14:08 73.9 °F 66.61 °F 30.16 in Calm   1 mph 78% 0 in VWS V15.00 W/m2
14:12 74.1 °F 66.06 °F 30.16 in Calm   1 mph 76% 0 in VWS V15.00 W/m2
14:18 74.4 °F 65.58 °F 30.16 in Calm   2 mph 74% 0 in VWS V15.00 W/m2
14:22 74.6 °F 66.54 °F 30.15 in Calm   2 mph 76% 0 in VWS V15.00 W/m2
14:28 75 °F 67.31 °F 30.15 in Calm   2 mph 77% 0 in VWS V15.00 W/m2
14:30 75.1 °F 67.03 °F 30.15 in Calm   2 mph 76% 0 in VWS V15.00 W/m2
14:32 75.2 °F 66.74 °F 30.15 in Calm     75% 0 in VWS V15.00 W/m2
14:38 75.4 °F 67.69 °F 30.15 in Calm   1 mph 77% 0 in VWS V15.00 W/m2
14:42 75.7 °F 67.98 °F 30.15 in Calm   1 mph 77% 0 in VWS V15.00 W/m2
14:48 76 °F 68.28 °F 30.15 in Calm   1 mph 77% 0 in VWS V15.00 W/m2
14:52 76.1 °F 69.12 °F 30.14 in Calm   1 mph 79% 0 in VWS V15.00 W/m2
14:58 76.2 °F 68.09 °F 30.14 in Calm   1 mph 76% 0 in VWS V15.00 W/m2
15:00 76.1 °F 68.37 °F 30.14 in Calm   1 mph 77% 0 in VWS V15.00 W/m2
15:02 76 °F 67.9 °F 30.14 in Calm   2 mph 76% 0 in VWS V15.00 W/m2
15:08 75.4 °F 68.07 °F 30.14 in Calm   2 mph 78% 0 in VWS V15.00 W/m2
15:12 75.2 °F 67.12 °F 30.14 in Calm   3 mph 76% 0 in VWS V15.00 W/m2
15:18 75.4 °F 67.69 °F 30.15 in NNE 2 mph 3 mph 77% 0 in VWS V15.00 W/m2
15:22 75.5 °F 67.41 °F 30.15 in Calm   3 mph 76% 0 in VWS V15.00 W/m2
15:28 75.4 °F 67.32 °F 30.15 in Calm   3 mph 76% 0 in VWS V15.00 W/m2
15:32 75.3 °F 67.6 °F 30.15 in Calm   3 mph 77% 0 in VWS V15.00 W/m2
15:38 75.4 °F 67.32 °F 30.14 in Calm   4 mph 76% 0 in VWS V15.00 W/m2
15:42 75.7 °F 67.61 °F 30.14 in North 1 mph 4 mph 76% 0 in VWS V15.00 W/m2
15:48 75.9 °F 67.8 °F 30.14 in North 3 mph 5 mph 76% 0 in VWS V15.00 W/m2
15:52 75.8 °F 66.93 °F 30.15 in Calm   5 mph 74% 0 in VWS V15.00 W/m2
15:56 75.3 °F 66.45 °F 30.15 in Calm   5 mph 74% 0 in VWS V15.00 W/m2
16:02 75 °F 67.31 °F 30.15 in NE 3 mph 3 mph 77% 0 in VWS V15.00 W/m2
16:06 75 °F 66.93 °F 30.15 in Calm   3 mph 76% 0 in VWS V15.00 W/m2
16:13 74.6 °F 66.54 °F 30.15 in Calm   3 mph 76% 0 in VWS V15.00 W/m2
16:17 74.2 °F 66.16 °F 30.15 in Calm   3 mph 76% 0 in VWS V15.00 W/m2
16:23 73.9 °F 66.61 °F 30.15 in Calm   3 mph 78% 0 in VWS V15.00 W/m2
16:27 73.8 °F 66.15 °F 30.15 in Calm   3 mph 77% 0 in VWS V15.00 W/m2
16:33 73.5 °F 66.59 °F 30.15 in Calm   1 mph 79% 0 in VWS V15.00 W/m2
16:37 73.7 °F 67.15 °F 30.15 in WNW 1 mph 3 mph 80% 0 in VWS V15.00 W/m2
16:41 73.8 °F 66.52 °F 30.15 in Calm   3 mph 78% 0 in VWS V15.00 W/m2
16:46 73.7 °F 66.42 °F 30.15 in Calm   3 mph 78% 0 in VWS V15.00 W/m2
16:57 73.7 °F 66.05 °F 30.15 in Calm   3 mph 77% 0 in VWS V15.00 W/m2
17:03 73.5 °F 66.23 °F 30.15 in Calm   2 mph 78% 0 in VWS V15.00 W/m2
17:07 73.3 °F 66.03 °F 30.15 in Calm   2 mph 78% 0 in VWS V15.00 W/m2
17:13 73.4 °F 66.13 °F 30.15 in Calm   3 mph 78% 0 in VWS V15.00 W/m2
17:17 73.5 °F 66.23 °F 30.16 in Calm   3 mph 78% 0 in VWS V15.00 W/m2
17:23 73.2 °F 65.94 °F 30.16 in Calm   4 mph 78% 0 in VWS V15.00 W/m2
17:27 72.8 °F 65.91 °F 30.16 in Calm   4 mph 79% 0 in VWS V15.00 W/m2
17:42 71 °F 65.23 °F 30.15 in NNE 1 mph 2 mph 82% 0 in VWS V15.00 W/m2
17:46 70.8 °F 65.04 °F 30.15 in Calm   7 mph 82% 0 in VWS V15.00 W/m2
17:52 70.6 °F 64.84 °F 30.15 in Calm   7 mph 82% 0 in VWS V15.00 W/m2
17:56 70.4 °F 64.65 °F 30.15 in ENE 1 mph 7 mph 82% 0 in VWS V15.00 W/m2
18:03 70.2 °F 64.45 °F 30.15 in Calm   4 mph 82% 0 in VWS V15.00 W/m2
18:07 70 °F 64.61 °F 30.15 in North 2 mph 4 mph 83% 0 in VWS V15.00 W/m2
18:13 69.8 °F 64.41 °F 30.15 in Calm   5 mph 83% 0 in VWS V15.00 W/m2
18:17 69.7 °F 64.31 °F 30.15 in Calm   5 mph 83% 0 in VWS V15.00 W/m2
18:23 69.5 °F 64.12 °F 30.16 in Calm   5 mph 83% 0 in VWS V15.00 W/m2
18:27 69.5 °F 64.12 °F 30.16 in Calm   5 mph 83% 0 in VWS V15.00 W/m2
18:33 69.3 °F 64.26 °F 30.16 in North 5 mph 5 mph 84% 0 in VWS V15.00 W/m2
18:37 69.2 °F 64.17 °F 30.16 in Calm   5 mph 84% 0 in VWS V15.00 W/m2
18:43 69.1 °F 64.07 °F 30.16 in Calm   5 mph 84% 0 in VWS V15.00 W/m2
18:47 69.1 °F 64.07 °F 30.17 in Calm   5 mph 84% 0 in VWS V15.00 W/m2
18:53 69.1 °F 64.74 °F 30.16 in Calm   5 mph 86% 0 in VWS V15.00 W/m2
Liberty Hills, Hanover Township, Pennsylvania, USA
Compliments of Weather Underground - 5.75 mb